Simultaneous Nadir Overpasses (SNOs) Predictions

Prediction of SNOs between AQUA and METOP-B Satellite Orbit:

Table of predicted SNOs for the next 14.0 days since TLE Epoch: 11/22/2014
Index Date (AQUA) Time (AQUA) Lat,Lon (AQUA) SZA (AQUA ) Date (METOP-B) Time (METOP-B) Lat,Lon (METOP-B) SZA (METOP-B ) Distance(km) Time Diff (sec)
1 11/22/2014 13:21:13 73.15, -24.69 93.23 11/22/2014 13:20:06 73.07, -27.17 93.19 80.49 67
2 11/22/2014 14:10:50 -73.75, 141.68 86.15 11/22/2014 14:10:35 -73.73, 141.63 86.17 3.23 15
3 11/22/2014 15:00:19 73.82, -50.84 93.94 11/22/2014 15:01:13 73.81, -50.84 93.92 2.03 54
4 11/25/2014 08:55:33 73.53, 40.97 94.20 11/25/2014 08:54:22 73.46, 40.10 94.14 28.56 71
5 11/25/2014 09:45:03 -73.76,-151.89 85.56 11/25/2014 09:44:58 -73.77,-151.87 85.55 1.03 5
6 11/25/2014 10:34:32 73.84, 15.57 94.53 11/25/2014 10:35:36 73.84, 15.65 94.53 2.32 64
7 11/28/2014 04:29:49 73.70, 107.04 94.90 11/28/2014 04:28:42 73.68, 107.02 94.89 2.48 67
8 11/28/2014 05:19:16 -73.78, -85.48 85.02 11/28/2014 05:19:22 -73.79, -85.39 85.00 3.16 6
9 11/28/2014 06:08:47 73.96, 81.74 95.18 11/28/2014 06:09:58 73.96, 82.35 95.17 18.53 71
10 12/01/2014 00:04:00 73.68, 173.55 95.35 12/01/2014 00:03:06 73.69, 173.45 95.37 3.45 54
11 12/01/2014 00:53:27 -73.75, -18.96 84.57 12/01/2014 00:53:47 -73.76, -19.07 84.56 3.37 20
12 12/01/2014 01:43:07 74.40, 147.17 96.12 12/01/2014 01:44:13 74.41, 149.90 96.09 81.43 66
13 12/03/2014 19:38:10 73.71,-120.07 95.81 12/03/2014 19:37:28 73.74,-120.03 95.84 3.07 42
14 12/03/2014 20:27:37 -73.78, 47.43 84.12 12/03/2014 20:28:09 -73.81, 47.46 84.09 3.20 32




NCC Satellite Simultaneous Nadir Overpasses (SNOs) Prediction Service
